Regional Weather Roundup
Issued by NWS

Home | Current Version | Previous Version | Text Only | Print | Product List | Glossary Off
Versions: 1 2 3 4 5 6 7 8 9 10 11 12 13 14 15 16 17 18 19 20 21 22 23 24 25 26 27

000
ASUS45 KSLC 180110
RWRUT

UTAH REGIONAL WEATHER ROUNDUP
NATIONAL WEATHER SERVICE SALT LAKE CITY UT
700 PM MDT THU AUG 17 2017

UTZ001>011-023>025-180200-

NORTHERN UTAH

CITY           SKY/WX    TMP DP  RH WIND       PRES   REMARKS
BRIGHAM CITY   SUNNY     88  22   9 S8        30.07S
HILL AFB       SUNNY     85  30  13 NW7       30.12F
LOGAN          SUNNY     87  36  16 S9        30.07F
OGDEN          SUNNY     86  28  12 W6        30.08F
SALT LAKE CITY MOSUNNY   89  37  16 N8        30.07S
TOOELE VALLEY  SUNNY     86  43  22 NE10      30.08F
WENDOVER       SUNNY     91  38  15 SE7       30.04F
HEBER CITY       N/A     84  34  16 W7        30.15S
WEST JORDAN    SUNNY     85  52  31 N8        30.11S

$$

UTZ011>015-024>027-180200-

CENTRAL/NORTHEAST UTAH

CITY           SKY/WX    TMP DP  RH WIND       PRES   REMARKS
PROVO AIRPORT  MOSUNNY   85  50  29 NW8       30.09S
MOAB/CANYONLAN SUNNY     91  30  11 W8        30.04F
DELTA          SUNNY     88  32  13 CALM      30.09F
PRICE          SUNNY     84  33  16 VRB3      30.16F
ROOSEVELT      SUNNY     84  37  18 NE3       30.11F
VERNAL         SUNNY     85  38  18 VRB5      30.11F

$$

UTZ013>016-019>022-027-180200-

SOUTHERN UTAH

CITY           SKY/WX    TMP DP  RH WIND       PRES   REMARKS
BRYCE CANYON   PTSUNNY   75  37  25 S5        30.33F
CEDAR CITY     MOSUNNY   85  32  15 VRB3      30.15F
MILFORD        SUNNY     90  34  13 NW5       30.10F
ST GEORGE        N/A     97  35  11 W8        29.95F HX  92
HANKSVILLE     SUNNY     90  32  12 S5        30.06F
BLANDING       SUNNY     84  30  14 W6        30.24F

$$

REGIONAL REPORTS     COLORADO/ARIZONA

CITY           SKY/WX    TMP DP  RH WIND       PRES   REMARKS
CRAIG, CO      SUNNY     80  29  15 W15       30.18S
GRAND JUNCTION SUNNY     88  30  12 NW9       30.08S
RIFLE, CO      CLOUDY    84  33  16 W12       30.14F
MONTROSE, CO   SUNNY     82  37  20 N3        30.17F
CORTEZ, CO     SUNNY     84  27  12 W9        30.18S
COLORADO CITY    N/A     90  36  14 N5        30.14F
PAGE, AZ       SUNNY     93  33  12 CALM      30.04F
GRAND CANYON   MOSUNNY   80  30  16 SW12      30.27S
KINGMAN, AZ    SUNNY     92  39  15 W7        30.03S
FLAGSTAFF, AZ  SUNNY     73  29  19 SW12      30.31S

$$

REGIONAL REPORTS    NEVADA/IDAHO/WYOMING

CITY           SKY/WX    TMP DP  RH WIND       PRES   REMARKS
LAS VEGAS, NV  MOSUNNY  100  40  12 NE9       29.91S HX  95
ELY, NY        MOSUNNY   83  31  15 W3        30.20F
ELKO, NV       SUNNY     87  21   9 W13       30.13F
POCATELLO, ID  SUNNY     82  38  20 W14       30.10F
BURLEY, ID     SUNNY     80  42  25 W7        30.08F
FORT BRIDGER,    N/A     77  32  19 W15G24    30.29S
EVANSTON, WY   SUNNY     75  36  24 W18       30.28F
ROCK SPRINGS,  SUNNY     77  28  16 NW15G25   30.21S
KEMMERER, WY     N/A    N/A N/A N/A W15G23    30.28S

$$




USA.gov is the U.S. government's official web portal to all federal, state and local government web resources and services.